Погода в Астахове

Россия / Смоленская область     55°25′38″N   34°55′26″E
темп.,
°C
ветер,
м/с
пор.,
м/с
влажн.,
%
обл.,
%
осадки,
мм/ч
давл.,
гПа
погр.,
м
4 марта, чт
чт400:00+1з81587100 0.0 1009681
03:000зюз71586100 0.0 1006740
06:000з71391100 0.0 1004831
09:00−1зюз71292100 0.1 1002503
12:000зюз610100100 0.7 1001634
15:00−1с4798100 2.9 1001441
18:00−2ссз2493100 1.0 1001190
21:00−5сз348897 1.0 100385
5 марта, пт
пт500:00−8сз349015 0.0 100442
03:00−9зсз23928 0.0 100622
06:00−8зсз379652 0.1 1007181
09:00−7зсз369767 0.2 1009204
12:00−5сз458886 0.0 1010531
15:00−4зсз358155 0.0 1011697
18:00−6зюз128537 0.0 101221
21:00−7юз228668 0.0 101321
6 марта, сб
сб600:00−7ю229481 0.1 101422
03:00−7ююв229691 0.4 101548
06:00−7ссв4596100 1.6 1016237
09:00−7с4794100 2.4 1017394
12:00−6ссз4588100 0.1 1018634
15:00−6сз468096 0.2 1017847
18:00−8зюз348846 0.0 101770
21:00−9юз598754 0.0 1016204
7 марта, вс
вс700:00−7юз7158099 0.0 1012655
03:00−5юз91683100 0.0 1008874
06:00−5юз101790100 0.1 10021042
09:00−4юз111992100 0.8 9981126
12:00−6сз91587100 2.1 998984
15:00−5зсз7146583 2.2 10002342
18:00−7з513749 0.0 1000337
21:00−7зюз8177714 0.0 998476
8 марта, пн
пн800:00−7зюз9187732 0.0 996726
03:00−7зсз8168864 0.7 9981206
06:00−11зсз8158769 0.1 1001774
09:00−11сз6129083 0.2 1005643
12:00−9сз7108495 0.0 1007885
15:00−8сз698398 0.1 10091016
18:00−10сз3789100 0.1 1010215
21:00−12сз4994100 0.1 1013305